Theta_e
331 337 340 341 342 341 340 340 340 338 339 344 346 347 348 352 350 348 346 346 346 346 345 346 347 348 349 349 350 351 350 351 347 350 351 351 350 350 350 350 346 341 343 344
331 337 338 338 339 339 339 340 340 338 341 344 343 344 346 350 352 350 348 348 348 347 348 349 349 350 350 351 351 351 350 345 345 350 345 352 351 351 347 346 342 343 344 344
333 337 335 336 338 339 340 340 340 339 337 342 345 340 350 348 351 351 350 349 349 349 349 350 351 351 351 352 353 353 347 345 344 351 345 346 347 347 344 342 341 341 340 338
329 331 331 333 336 338 340 339 336 336 337 341 340 341 340 351 352 353 351 350 349 349 350 350 351 351 352 353 355 354 349 347 345 343 346 346 351 349 345 341 339 337 340 341
327 326 327 330 334 336 338 335 334 334 337 339 340 342 340 347 349 351 352 351 350 349 350 350 350 350 350 352 354 355 350 349 349 344 346 348 352 350 350 348 340 337 343 341
326 325 327 328 329 331 333 332 334 336 338 341 340 340 340 341 341 344 345 348 350 349 350 350 351 350 350 351 353 353 347 347 348 346 342 345 353 353 350 348 348 344 340 341
325 325 325 325 326 329 329 332 336 337 339 341 340 341 340 339 338 338 342 342 347 349 349 350 350 350 351 351 352 353 345 345 345 344 343 343 346 350 346 345 348 348 348 348
325 325 325 326 325 326 328 329 330 335 338 339 341 341 339 338 337 337 342 343 344 346 349 349 350 350 353 352 352 352 346 345 345 344 343 343 345 353 352 351 351 350 349 348
325 325 325 324 326 326 326 326 328 329 332 336 338 337 336 337 337 336 340 341 345 345 347 349 350 350 352 353 353 349 347 346 345 345 344 343 344 349 351 351 351 350 348 345
325 325 325 326 324 325 326 328 327 328 331 335 336 337 337 337 336 336 335 340 346 346 346 347 349 351 352 353 353 353 347 346 346 346 346 346 345 347 349 349 348 347 345 343
328 328 327 325 325 325 325 325 326 327 329 332 336 337 336 335 336 336 335 339 344 347 346 347 349 351 353 353 354 355 354 349 346 348 352 352 353 351 350 350 348 346 343 344
330 329 331 329 327 325 326 326 327 327 327 329 330 331 332 332 333 333 335 337 340 347 347 347 348 351 354 354 355 355 355 354 353 354 352 354 352 350 350 350 347 345 345 345
331 330 331 331 327 325 325 326 326 326 327 327 328 329 331 332 332 332 335 339 343 347 348 348 349 351 354 354 355 354 355 355 355 356 355 352 349 349 351 348 346 346 346 342
328 329 329 330 334 333 333 332 329 326 326 326 326 327 329 330 331 334 341 339 342 348 348 349 350 353 354 353 354 355 355 356 355 353 348 348 348 351 350 347 346 345 341 332
330 331 332 331 331 331 332 332 331 328 327 327 327 327 328 330 340 343 344 344 339 344 347 349 351 353 355 354 355 355 354 354 352 347 347 347 351 348 347 346 345 340 332 321
330 331 331 333 331 330 332 332 332 330 326 327 327 328 329 332 340 343 345 347 344 342 345 348 350 352 354 354 355 354 353 354 351 348 347 350 351 348 345 341 339 334 324 314
327 331 331 332 330 331 332 331 332 332 329 329 327 331 342 342 345 346 347 346 344 344 345 348 351 351 352 353 355 354 354 353 348 347 349 351 350 345 340 339 334 327 319 310
326 330 331 332 331 333 331 335 335 334 335 339 339 340 344 346 345 346 347 350 350 347 344 348 350 352 352 353 355 355 355 352 350 348 350 349 347 341 340 336 330 322 313 307
329 332 333 333 332 330 329 330 337 339 337 341 342 342 344 345 344 347 348 353 352 350 347 348 350 353 354 355 355 355 353 351 350 348 347 347 345 341 338 334 329 319 309 306
330 331 333 332 333 332 330 336 336 338 340 341 341 342 343 345 342 350 351 354 354 351 349 348 351 354 356 355 353 351 352 353 352 346 345 346 342 339 335 332 328 315 308 306
332 333 334 333 334 333 332 335 335 341 341 340 338 338 339 342 341 341 352 355 355 354 353 353 354 355 356 354 351 351 351 351 349 346 345 345 342 338 335 331 323 312 308 315
329 329 332 334 334 335 334 335 336 339 338 337 337 337 337 337 338 338 349 354 353 355 356 356 355 354 350 352 350 349 349 349 350 344 344 342 338 340 335 331 320 312 315 318
331 330 331 333 334 336 335 335 335 336 336 337 334 335 336 337 337 337 347 353 350 349 351 352 352 349 347 349 349 349 349 349 347 341 342 339 337 339 335 333 319 318 318 319
324 325 333 329 329 328 331 333 334 335 335 334 327 333 331 335 337 337 342 352 350 348 347 346 348 349 349 347 349 349 349 348 343 341 338 336 341 338 334 330 321 319 318 317
320 324 327 328 328 328 330 331 329 331 325 325 325 328 330 327 332 339 342 352 350 347 346 346 347 348 348 347 348 348 348 344 342 337 336 341 340 334 333 325 321 318 319 318
317 319 321 322 319 320 320 326 326 323 322 320 320 322 325 325 327 337 343 348 351 348 347 347 346 345 346 346 347 348 345 339 336 336 336 340 334 331 328 323 320 318 319 318
Wind_Speed
14 11 14 13 10 5 4 7 7 7 4 6 8 10 8 18 20 20 22 22 23 22 22 21 20 19 18 18 17 17 17 16 15 12 8 8 8 9 9 9 5 3 2 0
9 17 17 6 5 10 11 11 10 8 2 4 10 11 9 15 22 24 24 24 23 22 23 23 22 21 20 20 20 18 19 19 16 13 10 8 8 8 9 7 5 4 3 1
19 17 8 7 12 14 15 13 10 11 9 10 10 11 7 10 17 22 24 25 25 24 24 24 24 24 23 23 22 21 21 20 18 16 15 12 11 12 12 9 8 6 3 3
13 7 7 13 16 14 18 9 7 8 10 10 5 10 8 10 14 17 23 26 27 26 24 24 25 25 24 23 22 22 23 23 20 18 17 14 11 10 11 10 9 8 7 6
7 9 13 15 15 12 16 1 7 9 12 13 13 8 2 9 8 13 21 27 29 30 28 26 25 25 24 22 21 22 22 24 23 22 18 16 12 9 7 8 10 8 9 8
1 2 5 8 7 12 11 7 10 12 12 14 17 8 12 2 2 5 4 20 26 32 31 28 26 23 23 23 21 20 20 23 25 24 23 19 16 12 10 9 9 9 9 9
13 13 11 10 11 8 11 16 15 16 14 13 16 7 13 13 12 8 3 9 22 29 34 32 29 27 25 25 24 25 23 23 23 24 26 23 18 15 11 11 10 9 8 7
8 12 16 14 17 14 13 17 15 21 16 15 6 9 14 11 11 13 4 4 9 22 31 33 32 30 27 26 25 27 31 25 23 24 24 25 21 14 12 10 10 8 8 8
5 11 2 6 11 12 18 12 18 22 22 11 14 9 7 16 16 13 2 5 9 18 28 33 33 33 29 28 28 29 30 30 25 23 24 24 24 20 13 11 11 9 10 10
3 11 11 10 6 10 14 8 10 12 19 22 17 17 10 11 8 8 4 5 8 14 22 30 31 31 29 28 28 28 30 29 28 23 23 24 23 23 19 14 12 12 12 11
7 5 2 4 12 14 10 13 13 15 12 15 16 15 14 9 13 10 6 2 6 14 18 26 28 28 27 26 27 27 28 29 30 25 21 21 19 20 20 16 15 14 12 11
5 7 9 13 5 5 11 15 18 12 16 11 15 15 7 7 8 10 6 5 7 14 15 21 25 27 27 26 26 27 27 27 26 23 22 21 21 21 20 18 17 15 15 12
7 5 8 11 8 8 9 13 14 17 17 19 16 12 15 13 9 12 10 5 7 16 17 20 24 26 25 26 26 27 28 29 27 25 23 22 24 23 23 19 17 16 14 12
4 13 11 12 12 8 11 12 12 16 15 17 18 20 15 18 18 7 11 9 9 15 21 22 23 24 24 25 27 29 30 30 30 29 27 26 27 27 24 19 19 16 14 12
6 12 14 13 13 14 14 14 14 16 17 19 19 18 12 13 10 13 15 13 12 14 22 25 27 27 27 28 28 30 31 33 34 32 29 27 28 25 23 22 20 17 13 11
11 12 11 13 18 15 18 19 18 15 15 18 17 19 15 6 13 13 14 13 11 13 18 23 24 27 29 30 32 32 34 33 32 32 29 31 28 28 24 22 22 17 13 11
15 12 11 15 15 13 17 21 21 12 12 12 14 10 10 9 10 12 15 14 12 11 14 21 25 28 30 33 33 34 35 32 35 33 31 30 29 27 24 22 20 17 13 14
15 13 9 12 13 17 19 3 7 10 9 7 11 9 10 12 11 9 3 14 14 11 10 16 21 24 25 26 27 29 31 31 30 28 31 31 30 27 26 23 20 16 14 16
15 13 11 12 12 15 18 8 7 8 13 4 7 6 10 16 15 8 9 17 15 13 10 13 19 21 23 25 27 30 29 29 30 32 30 29 26 27 28 24 19 16 17 18
5 10 10 11 11 15 11 6 5 6 12 6 3 6 11 19 11 11 22 19 16 10 5 9 15 19 22 25 31 30 32 35 31 29 27 24 22 23 23 21 19 17 17 17
8 9 12 12 12 12 6 3 2 11 1 8 9 10 11 9 11 20 21 17 13 7 1 6 12 17 21 27 28 31 36 36 37 32 30 30 24 20 19 19 18 17 18 16
10 9 10 10 15 19 5 3 10 7 4 7 11 12 14 14 15 17 18 17 11 6 1 5 12 16 20 26 27 33 37 39 39 31 31 28 24 23 24 21 18 17 18 18
8 9 10 8 5 4 5 8 7 8 6 6 11 13 15 15 15 17 16 14 10 6 1 4 9 13 17 22 29 37 39 39 33 28 30 27 25 34 30 24 21 18 18 16
16 15 9 14 11 16 15 11 10 7 7 8 11 12 15 15 18 15 15 13 8 4 1 6 8 10 16 24 31 35 36 31 27 33 33 31 31 32 28 24 19 17 17 19
12 4 11 15 18 22 18 18 11 8 10 11 14 13 13 13 17 15 13 12 6 5 4 2 5 9 14 20 31 33 33 32 35 33 31 31 31 30 26 20 18 18 18 18
18 18 14 15 21 22 23 16 11 18 19 18 15 15 16 15 15 16 10 11 9 4 5 3 4 8 13 19 26 31 36 31 30 27 28 31 29 25 19 19 16 22 20 24
Wind_Direction
203 220 225 216 231 328 292 283 303 353 48 290 265 270 236 193 205 193 195 197 196 194 188 191 194 195 194 197 200 201 198 204 208 206 205 209 198 194 195 203 208 218 183 154
204 231 239 270 272 250 256 275 277 300 54 263 298 286 259 192 207 207 200 198 202 197 189 193 196 198 199 201 201 200 202 207 206 206 205 187 178 178 184 180 158 151 172 189
235 231 274 220 227 248 247 260 292 300 318 246 291 277 153 195 204 214 213 208 204 202 194 195 199 203 203 205 206 206 211 212 208 200 211 209 189 186 179 180 163 156 187 183
242 241 252 235 243 238 262 260 257 274 276 292 344 309 278 148 202 210 218 214 210 206 204 195 198 202 204 208 206 207 215 215 211 210 208 204 193 197 215 225 227 243 212 216
202 219 230 246 245 243 261 27 264 287 277 278 264 262 348 172 202 212 214 217 215 207 205 199 197 200 201 201 202 203 214 216 211 210 205 210 196 203 201 211 232 216 213 222
216 139 250 252 242 249 261 221 237 248 267 268 260 261 280 97 306 123 207 209 215 210 205 204 199 195 196 198 198 195 206 209 212 210 207 206 203 197 196 200 204 216 235 226
208 220 230 244 237 197 223 242 252 245 234 246 254 239 261 309 307 306 301 254 207 208 203 202 198 192 192 193 194 194 201 200 205 208 209 212 210 208 214 214 204 204 205 206
257 229 207 209 234 247 214 241 248 247 249 257 165 239 257 264 311 298 289 264 204 205 202 200 199 195 193 192 191 194 203 199 200 205 208 211 214 207 205 218 211 206 215 205
271 236 228 235 248 249 240 238 257 269 267 261 272 221 253 267 266 278 351 270 209 195 200 198 199 197 195 194 195 200 206 205 204 204 206 209 214 209 206 206 213 214 205 228
303 270 253 238 206 224 254 318 215 231 250 256 241 253 264 279 257 289 280 243 194 193 195 196 196 196 196 197 197 198 204 207 207 206 206 206 209 214 217 225 209 218 228 237
314 254 244 214 213 228 188 238 239 280 263 256 255 249 231 227 255 290 333 312 213 194 195 192 194 196 195 194 195 193 195 199 203 202 196 195 194 203 214 219 219 222 234 243
20 302 275 281 86 323 287 266 242 241 243 246 271 272 152 212 286 296 286 250 229 203 196 195 192 190 190 188 189 189 190 190 192 190 191 185 190 206 210 212 213 221 231 239
346 262 290 252 176 196 242 247 250 265 259 257 271 264 244 257 261 286 296 263 214 198 191 190 191 192 192 189 187 186 186 188 183 183 180 185 198 205 202 206 214 222 228 231
281 269 272 288 337 330 291 266 255 258 255 257 250 263 260 278 263 281 304 285 243 209 193 188 188 190 189 188 186 185 183 184 181 184 194 198 202 201 199 204 208 220 210 220
277 285 285 269 276 280 271 277 270 262 260 262 276 275 291 254 328 310 302 294 263 226 203 194 188 190 189 184 186 187 185 184 188 191 194 195 197 194 197 203 208 200 205 215
291 276 268 272 272 263 264 268 268 267 263 267 261 271 269 283 294 293 303 309 289 252 225 208 198 192 191 189 187 186 185 186 185 190 190 193 195 200 199 194 187 192 198 204
284 274 269 267 270 271 261 255 259 261 268 276 260 286 349 289 301 309 312 318 310 279 241 214 206 199 194 195 189 187 186 182 187 192 187 190 195 195 195 188 192 191 194 194
253 263 265 272 274 257 265 31 295 273 271 255 270 289 309 303 305 303 29 345 331 318 264 221 211 206 203 196 193 185 185 184 182 181 187 189 193 193 191 189 192 195 193 188
230 248 254 258 251 256 274 250 256 263 269 212 283 300 321 317 288 161 337 338 327 309 283 227 212 205 196 192 188 182 180 180 181 187 182 186 193 196 192 191 192 197 194 184
235 225 245 242 260 268 255 19 349 302 259 133 324 355 352 336 292 41 350 343 335 320 283 222 204 197 192 187 186 179 177 181 177 180 179 180 194 198 196 196 193 193 187 185
203 225 233 237 252 266 283 327 297 243 307 347 354 348 349 354 341 323 336 341 345 345 270 190 186 189 190 188 180 181 180 178 181 184 175 180 184 204 205 210 204 190 180 180
255 251 241 234 263 261 67 234 253 1 334 355 339 339 329 330 330 334 337 336 343 3 55 151 173 183 192 182 181 181 178 183 188 181 185 183 163 213 209 214 211 192 181 184
251 246 285 291 267 39 337 299 299 293 313 346 345 330 326 329 335 333 331 327 332 345 102 166 185 189 194 193 184 186 183 190 181 188 187 190 202 189 195 202 206 190 188 189
256 257 258 274 257 274 293 269 267 270 293 320 333 328 335 348 330 327 327 321 320 332 243 198 216 202 187 187 191 196 193 179 184 188 195 203 198 191 196 191 192 187 191 193
263 314 262 264 264 270 262 262 266 277 310 311 312 314 318 334 320 319 325 312 304 317 312 264 233 212 203 198 194 200 185 184 190 194 200 197 192 193 195 183 186 190 198 199
260 262 256 266 281 289 294 286 264 304 297 296 291 296 303 312 303 302 330 304 290 290 288 302 258 233 218 205 199 196 186 193 196 206 204 192 187 187 186 182 186 191 199 201